This is the latest recevied weather packets stored in our database for station/object N4MGC. If no packets are shown the sender has not sent any weather packets the latest 10 day(s).
| Time | Temp. | Humidity | Pressure | Rain* | Wind** | Luminosity | Snow |
|---|---|---|---|---|---|---|---|
| 1777536330 | 15° C | 99% | 1012.3 hPa | 1.78 mm | - | 0 W/m² | - |
| 1777536026 | 15° C | 99% | 1012.2 hPa | 1.78 mm | - | 0 W/m² | - |
| 1777535721 | 15° C | 99% | 1012.4 hPa | 0 mm | - | 0 W/m² | - |
| 1777535419 | 15° C | 99% | 1012.3 hPa | 0 mm | - | 0 W/m² | - |
| 1777535116 | 15° C | 99% | 1012.4 hPa | 0 mm | - | 0 W/m² | - |
| 1777534812 | 15° C | 99% | 1012 hPa | 0 mm | - | 0 W/m² | - |
| 1777534509 | 15° C | 99% | 1012.2 hPa | 0 mm | - | 0 W/m² | - |
| 1777534207 | 15° C | 99% | 1011.8 hPa | 0 mm | - | 0 W/m² | - |
| 1777533904 | 15° C | 99% | 1011.4 hPa | 0 mm | - | 0 W/m² | - |
| 1777533601 | 15° C | 99% | 1011.7 hPa | 0 mm | - | 0 W/m² | - |
| 1777533297 | 15° C | 99% | 1011.6 hPa | 0 mm | - | 0 W/m² | - |
| 1777532994 | 15° C | 99% | 1011.8 hPa | 0 mm | - | 0 W/m² | - |
| 1777532691 | 15.56° C | 99% | 1012 hPa | 1.27 mm | - | 0 W/m² | - |
| 1777532387 | 15.56° C | 99% | 1012.1 hPa | 3.05 mm | - | 0 W/m² | - |
| 1777532083 | 15.56° C | 99% | 1012.3 hPa | 3.05 mm | - | 0 W/m² | - |
| 1777531779 | 15.56° C | 99% | 1012.5 hPa | 3.05 mm | - | 0 W/m² | - |
| 1777531476 | 15.56° C | 99% | 1012.2 hPa | 4.83 mm | - | 0 W/m² | - |
| 1777531174 | 15.56° C | 99% | 1012.5 hPa | 6.1 mm | - | 0 W/m² | - |
| 1777530872 | 16.11° C | 99% | 1012.7 hPa | 7.87 mm | - | 0 W/m² | - |
| 1777530569 | 16.11° C | 99% | 1013 hPa | 6.1 mm | - | 0 W/m² | - |
| 1777530265 | 16.67° C | 99% | 1013.2 hPa | 3.05 mm | - | 0 W/m² | - |
| 1777529961 | 16.11° C | 99% | 1013.2 hPa | 3.05 mm | - | 0 W/m² | - |
| 1777529659 | 16.67° C | 99% | 1012.8 hPa | 1.27 mm | - | 0 W/m² | - |
| 1777529356 | 16.67° C | 99% | 1012.4 hPa | 1.78 mm | - | 0 W/m² | - |
| 1777529052 | 16.67° C | 99% | 1012.5 hPa | 1.78 mm | - | 0 W/m² | - |
* Rain latest hour (hover to see other rain measurements)
** Current wind speed in m/s (hover to see current wind gust speed)